This is the latest recevied weather packets stored in our database for station/object W5LND-10. If no packets are shown the sender has not sent any weather packets the latest 10 day(s).
| Time | Temp. | Humidity | Pressure | Rain* | Wind** | Luminosity | Snow |
|---|---|---|---|---|---|---|---|
| 1777937172 | 31.11° C | 15% | 1001.7 hPa | 0 mm | - | 171 W/m² | - |
| 1777936872 | 31.11° C | 15% | 1001.7 hPa | 0 mm | - | 179 W/m² | - |
| 1777936572 | 31.67° C | 15% | 1001.6 hPa | 0 mm | - | 178 W/m² | - |
| 1777936272 | 31.67° C | 16% | 1001.7 hPa | 0 mm | - | 230 W/m² | - |
| 1777935972 | 31.11° C | 16% | 1001.7 hPa | 0 mm | - | 200 W/m² | - |
| 1777935672 | 31.11° C | 16% | 1001.9 hPa | 0 mm | - | 179 W/m² | - |
| 1777935372 | 31.67° C | 16% | 1001.9 hPa | 0 mm | - | 243 W/m² | - |
| 1777935072 | 31.67° C | 16% | 1002 hPa | 0 mm | - | 332 W/m² | - |
| 1777934772 | 31.67° C | 15% | 1002 hPa | 0 mm | - | 278 W/m² | - |
| 1777934472 | 32.22° C | 16% | 1002 hPa | 0 mm | - | 355 W/m² | - |
| 1777934172 | 32.22° C | 17% | 1002.1 hPa | 0 mm | - | 404 W/m² | - |
| 1777933872 | 32.22° C | 17% | 1002.3 hPa | 0 mm | - | 355 W/m² | - |
| 1777933572 | 32.22° C | 20% | 1002.2 hPa | 0 mm | - | 315 W/m² | - |
| 1777933272 | 32.22° C | 19% | 1002.2 hPa | 0 mm | - | 334 W/m² | - |
| 1777932972 | 32.78° C | 18% | 1002.2 hPa | 0 mm | - | 603 W/m² | - |
| 1777932672 | 32.22° C | 19% | 1002.2 hPa | 0 mm | - | 628 W/m² | - |
| 1777932372 | 32.22° C | 20% | 1002.4 hPa | 0 mm | - | 606 W/m² | - |
| 1777932072 | 32.22° C | 20% | 1002.3 hPa | 0 mm | - | 707 W/m² | - |
| 1777931772 | 32.22° C | 19% | 1002.3 hPa | 0 mm | - | 424 W/m² | - |
| 1777931472 | 32.78° C | 21% | 1002.3 hPa | 0 mm | - | 512 W/m² | - |
| 1777931172 | 32.22° C | 21% | 1002.3 hPa | 0 mm | - | 432 W/m² | - |
| 1777930872 | 32.22° C | 22% | 1002.4 hPa | 0 mm | - | 450 W/m² | - |
| 1777930572 | 32.22° C | 20% | 1002.4 hPa | 0 mm | - | 431 W/m² | - |
| 1777930272 | 32.22° C | 18% | 1002.5 hPa | 0 mm | - | 638 W/m² | - |
| 1777929972 | 32.22° C | 20% | 1002.5 hPa | 0 mm | - | 722 W/m² | - |
* Rain latest hour (hover to see other rain measurements)
** Current wind speed in m/s (hover to see current wind gust speed)